This demonstration page uses our WeatherBlox Daily Observations layout. Learn more.

Left ArrowRight Arrow

Hourly Observations for October 7, 2019

Temp ( °F °C ) Dew Point ( °F °C ) Humidity (%) Winds ( mph kmh ) Pressure ( in mb ) Visibility ( mi km ) Precip ( " mm )
12:53 am 00:53 Clear 64 17.8 45 7.2 50 50 ENE 17 28 30.11 1020 10 16 0.00 0.00
1:53 am 01:53 Clear 63 17.2 42 5.6 47 47 N 14 22 30.14 1021 10 16 0.00 0.00
2:53 am 02:53 Cloudy 63 17.2 37 2.8 38 38 NE 7 11 30.18 1022 10 16 0.00 0.00
3:53 am 03:53 Cloudy 62 16.7 36 2.2 38 38 NE 14 22 30.17 1022 10 16 0.00 0.00
4:53 am 04:53 Cloudy 61 16.1 37 2.8 41 41 NE 12 19 30.17 1022 10 16 0.00 0.00
5:53 am 05:53 Cloudy 60 15.6 37 2.8 42 42 NNE 14 22 30.19 1022 10 16 0.00 0.00
6:53 am 06:53 Cloudy 59 15 37 2.8 44 44 NE 14 22 30.21 1023 10 16 0.00 0.00
7:53 am 07:53 Mostly Cloudy 58 14.4 38 3.3 48 48 NNE 12 19 30.24 1024 10 16 0.00 0.00
8:53 am 08:53 Cloudy 58 14.4 37 2.8 46 46 NE 10 17 30.27 1025 10 16 0.00 0.00
9:53 am 09:53 Cloudy 59 15 37 2.8 44 44 NE 8 13 30.29 1026 10 16 0.00 0.00
10:53 am 10:53 Cloudy 61 16.1 33 0.6 35 35 ENE 13 20 30.29 1026 10 16 0.00 0.00
11:53 am 11:53 Sunny 66 18.9 33 0.6 29 29 ENE 8 13 30.27 1025 10 16 0.00 0.00
12:53 pm 12:53 Sunny 69 20.6 32 0 25 25 ENE 8 13 30.24 1024 10 16 0.00 0.00
1:53 pm 13:53 Sunny 72 22.2 31 -0.6 22 22 ENE 9 15 30.19 1022 10 16 0.00 0.00
2:53 pm 14:53 Sunny 73 22.8 32 0 22 22 ESE 6 9 30.15 1021 10 16 0.00 0.00
3:53 pm 15:53 Sunny 75 23.9 33 0.6 22 22 SE 9 15 30.12 1020 10 16 0.00 0.00
4:53 pm 16:53 Sunny 76 24.4 33 0.6 21 21 ESE 10 17 30.10 1019 10 16 0.00 0.00
5:53 pm 17:53 Sunny 75 23.9 33 0.6 22 22 SE 3 6 30.08 1019 10 16 0.00 0.00
6:53 pm 18:53 Sunny 74 23.3 34 1.1 23 23 SE 9 15 30.08 1019 10 16 0.00 0.00
7:53 pm 19:53 Clear 70 21.1 36 2.2 29 29 SE 7 11 30.09 1019 10 16 0.00 0.00
8:53 pm 20:53 Clear 67 19.4 35 1.7 31 31 SE 7 11 30.09 1019 10 16 0.00 0.00
9:53 pm 21:53 Clear 63 17.2 36 2.2 37 37 E 5 7 30.10 1019 10 16 0.00 0.00
10:53 pm 22:53 Clear 62 16.7 36 2.2 38 38 E 6 9 30.10 1019 10 16 0.00 0.00
11:53 pm 23:53 Clear 60 15.6 36 2.2 41 41 E 6 9 30.09 1019 10 16 0.00 0.00

Powered by AerisWeather